Wind_Speed
59 61 61 63 60 59 58 50 54 54 49 56 55 56 66 62 61 60 62 64 65 69 75 70 65 66 68 70 90 95 90 87 66 75 76 73 65 63 52 53 51 49 45 38 38
62 64 67 70 60 53 52 51 48 57 58 59 63 61 69 58 56 58 60 63 65 67 75 79 57 62 64 65 95 101 93 89 53 62 70 72 67 65 59 56 52 52 46 42 41
64 64 62 51 48 50 50 53 56 58 60 65 66 71 64 51 52 53 56 60 62 66 73 76 58 60 63 65 92 102 97 88 65 57 64 68 67 67 63 60 55 53 50 46 45
48 49 51 50 50 49 53 58 61 63 65 69 69 61 60 52 48 51 52 59 60 64 72 70 61 61 64 65 92 105 102 96 70 67 60 65 62 69 66 63 57 54 51 49 48
55 56 54 53 52 56 62 62 65 66 68 65 62 59 57 53 49 48 48 54 57 59 68 65 60 58 61 72 93 108 104 99 94 65 51 62 67 70 65 64 61 57 53 48 47
49 51 51 53 54 56 58 59 60 62 63 62 60 59 58 48 54 45 45 47 51 53 58 60 54 50 58 74 91 112 109 105 95 77 70 63 64 65 67 64 63 61 55 50 47
57 60 54 51 54 57 60 61 61 62 63 64 62 57 63 50 54 49 46 43 44 47 50 52 46 47 57 74 92 109 110 106 98 83 75 71 65 62 60 63 63 58 55 54 55
62 66 64 62 60 62 63 67 63 66 66 66 66 61 65 59 53 51 46 41 41 40 46 48 41 47 59 76 96 114 115 112 99 84 72 70 61 63 57 60 63 60 57 59 58
67 68 67 69 69 67 72 72 74 73 69 67 64 64 63 64 55 55 48 41 37 37 41 48 39 43 60 76 97 116 117 113 111 93 82 73 72 68 58 61 62 58 57 60 59
70 72 74 77 79 80 79 76 80 78 74 68 67 63 62 63 59 55 50 42 37 34 37 46 38 37 61 73 89 109 112 107 106 96 88 76 72 69 69 68 65 58 51 58 59
73 78 81 80 84 87 85 86 86 82 73 71 69 66 64 58 58 57 48 43 36 37 35 40 35 31 57 75 94 115 118 113 102 101 98 84 80 84 77 73 63 58 56 58 63
80 82 81 86 88 91 94 94 91 84 66 70 71 63 67 56 54 56 48 41 34 34 34 40 33 40 63 74 91 117 120 118 110 103 97 96 88 77 77 75 71 70 66 63 61
90 88 90 89 94 96 98 98 91 80 63 61 65 60 64 62 56 58 48 42 38 32 32 41 35 35 57 74 89 115 120 121 116 112 102 100 91 85 78 76 79 71 70 63 58
94 95 92 92 98 102 104 99 92 79 61 58 53 60 64 59 61 59 51 42 41 34 30 39 38 35 51 73 88 113 118 122 119 115 108 98 90 82 86 85 81 72 72 68 63
93 98 96 100 97 107 107 94 86 76 59 54 55 63 62 61 62 59 55 45 43 37 30 37 39 38 41 69 87 109 124 126 121 116 113 108 99 87 83 81 77 74 76 68 69
100 105 101 110 107 106 105 90 79 71 59 58 57 60 59 59 62 58 55 48 48 40 33 34 40 34 45 69 86 114 122 128 127 119 115 101 97 91 84 70 75 78 76 72 72
106 106 117 108 113 105 93 82 74 67 65 60 61 55 53 57 60 55 57 49 52 44 37 34 38 35 44 63 86 109 124 132 129 123 112 102 102 86 82 77 78 77 78 74 75
109 110 112 111 103 100 87 78 70 68 68 65 54 52 52 54 57 54 55 51 52 45 43 38 35 35 42 57 77 104 123 129 127 123 113 110 94 90 84 78 79 76 73 76 75
106 109 110 102 96 92 83 74 71 70 71 65 59 49 51 54 56 52 51 48 51 51 48 39 37 31 37 56 81 103 125 126 128 126 122 117 102 98 91 78 79 74 76 74 75
101 99 98 97 91 88 84 76 71 70 72 63 60 55 51 55 55 51 47 54 55 52 49 41 38 33 37 52 71 96 121 129 129 129 122 109 105 104 91 82 76 79 79 76 77
97 92 95 90 88 85 81 74 73 71 71 68 64 60 54 53 57 54 50 58 53 56 50 43 37 37 32 41 63 87 114 126 129 133 123 114 107 100 94 88 84 78 83 81 80
93 89 91 84 85 82 79 74 71 71 76 69 67 64 61 58 58 55 52 59 59 59 49 47 43 34 32 47 60 74 106 123 129 125 120 117 111 102 97 93 86 79 84 83 82
92 84 90 83 82 84 81 79 75 75 75 73 73 70 67 63 58 57 57 63 64 61 53 53 35 36 34 31 51 70 97 118 122 124 125 118 106 104 104 99 93 81 83 86 83
96 87 84 87 82 82 85 82 81 80 80 80 76 77 72 67 62 60 62 69 68 61 58 54 39 36 37 39 50 59 89 114 120 125 117 111 113 112 107 101 94 84 86 86 84
98 90 84 81 81 82 84 81 83 83 83 84 81 83 78 73 68 63 67 70 69 66 63 56 41 41 43 41 49 66 87 114 122 117 114 114 116 114 111 106 102 89 88 87 87
99 89 80 75 72 72 78 73 74 80 81 83 81 82 79 77 74 69 70 75 74 69 66 58 50 48 45 47 48 60 85 111 116 120 119 126 122 123 122 115 106 96 86 89 87
91 83 72 63 64 61 65 62 64 67 75 78 77 76 81 82 72 72 69 78 77 76 71 62 55 53 49 52 55 64 79 100 110 116 116 121 119 120 119 113 110 106 99 92 89
Wind_Direction
297 296 294 294 294 290 291 288 289 291 291 296 295 293 296 297 287 277 275 275 277 272 268 260 253 256 247 242 226 220 216 216 219 221 224 226 223 224 227 229 228 233 232 227 230
295 293 293 297 295 292 292 293 294 299 298 297 295 292 297 297 289 278 274 275 274 272 271 267 260 254 246 245 224 217 213 213 206 230 232 228 225 222 223 228 226 232 231 227 233
293 293 296 299 299 298 297 295 295 296 296 298 299 298 299 291 291 280 273 272 272 271 272 272 269 258 254 248 223 212 210 207 199 214 230 231 225 223 220 226 225 229 232 232 235
305 303 301 300 294 295 293 292 292 294 294 298 300 299 302 292 292 284 276 272 272 272 273 276 273 265 258 241 218 208 208 204 193 201 215 221 221 222 217 223 226 229 230 232 235
306 306 305 300 296 296 299 297 296 298 298 298 302 302 303 298 296 287 275 274 271 275 279 278 274 266 245 229 213 203 206 206 197 198 202 223 223 222 219 220 224 229 232 233 236
313 308 307 307 305 303 302 301 301 303 302 303 306 306 307 303 303 292 283 279 275 283 281 281 279 260 234 222 208 199 201 202 195 196 196 206 211 218 218 218 221 225 229 231 233
332 333 324 319 318 316 313 310 309 310 309 308 306 309 309 301 309 300 294 289 278 290 289 286 278 250 228 216 205 198 199 203 199 194 195 202 204 214 215 217 217 221 230 232 232
330 333 327 323 319 318 318 319 315 312 309 310 308 309 305 304 305 305 296 291 287 292 301 295 272 241 222 211 202 197 198 202 197 192 190 197 203 209 212 214 215 219 226 232 232
325 326 326 323 319 315 319 315 316 315 312 309 307 307 303 302 303 305 297 295 289 292 304 299 272 237 219 211 202 196 198 202 197 194 195 193 203 216 214 214 217 219 223 227 232
321 321 320 320 322 322 317 311 313 313 312 307 305 304 301 299 300 303 297 296 295 288 302 304 278 239 217 211 203 196 197 200 203 206 199 194 200 204 213 216 216 217 221 227 231
318 317 319 317 316 319 315 312 312 310 306 304 302 301 299 297 298 298 297 295 293 292 297 307 285 227 209 205 201 196 197 198 199 198 197 197 200 202 211 213 212 215 216 227 232
314 312 313 316 315 314 312 313 308 305 303 299 295 295 294 291 293 291 291 292 289 290 297 301 273 235 210 203 200 196 197 197 196 196 199 200 199 198 205 210 210 215 217 224 228
311 310 312 314 313 313 312 311 304 303 297 295 291 292 284 287 285 284 288 287 288 281 292 296 288 238 221 203 200 198 196 198 198 202 199 197 195 203 209 210 209 210 216 221 224
309 308 308 310 309 309 312 307 303 300 298 296 290 283 279 278 277 279 282 283 283 275 285 292 296 250 223 206 201 199 196 199 199 200 198 199 199 203 207 210 211 210 212 216 225
305 305 305 306 304 305 306 304 300 297 302 293 280 273 270 268 269 274 281 281 278 275 276 286 293 272 228 209 201 198 197 200 199 200 204 205 201 197 208 210 214 211 216 216 222
303 303 302 303 303 303 305 301 297 295 295 283 272 269 269 265 267 270 275 277 273 271 270 279 286 280 232 214 201 201 197 200 200 202 203 204 199 205 207 210 217 217 221 221 224
301 299 301 302 302 303 301 297 295 295 286 277 274 271 270 268 267 267 270 270 269 270 263 272 279 275 237 215 206 200 197 201 202 202 202 204 201 204 206 211 216 218 220 221 228
300 300 300 300 300 300 298 295 294 287 282 280 277 273 268 263 262 261 265 264 263 267 263 261 272 276 239 214 206 204 200 201 202 202 203 204 197 204 207 211 216 219 221 223 228
300 300 299 299 299 297 295 294 289 283 280 280 278 271 264 261 258 258 261 262 260 260 263 259 266 275 243 217 207 204 201 200 202 203 204 203 199 206 207 209 218 221 223 223 226
300 301 299 298 296 294 292 290 285 282 279 278 275 272 260 257 255 252 254 250 251 254 257 257 262 269 253 221 212 205 202 202 200 204 204 202 202 206 207 210 218 221 224 225 228
303 300 297 295 293 289 287 283 282 280 275 273 271 267 262 253 253 247 244 244 249 252 251 252 257 264 251 227 211 208 204 203 199 204 203 201 200 205 205 210 219 223 224 226 229
301 299 293 290 287 284 281 279 275 272 272 268 265 261 257 250 246 245 239 237 240 245 246 247 246 262 259 228 211 209 205 203 204 204 203 202 200 206 207 212 219 223 225 226 229
300 296 290 287 282 280 276 273 268 265 263 262 261 257 253 248 242 239 239 236 239 241 242 242 237 248 258 237 221 211 207 204 204 204 203 202 201 205 208 212 219 223 226 229 230
299 294 287 284 279 274 270 266 262 258 257 255 252 255 252 248 243 235 233 235 237 237 235 237 230 241 249 226 213 214 209 204 205 205 202 199 203 206 212 215 220 224 226 228 230
299 296 290 285 281 276 270 265 262 260 259 256 251 250 250 246 241 232 232 233 235 236 234 231 218 232 242 237 227 212 207 203 204 203 201 199 204 208 215 216 220 224 226 230 231
301 297 295 289 283 276 271 267 262 259 257 254 252 251 250 246 242 234 228 230 231 234 232 232 215 217 233 239 228 219 211 204 203 202 199 201 204 209 213 215 217 221 227 231 236
301 298 296 290 283 277 274 269 261 256 253 251 250 248 245 243 243 238 230 229 226 229 232 229 221 217 219 234 226 218 212 207 204 203 203 203 205 213 214 218 223 225 226 227 233
Height
10735 10730 10724 10718 10713 10708 10703 10699 10695 10690 10685 10681 10677 10674 10666 10657 10648 10643 10638 10636 10630 10626 10625 10635 10645 10647 10654 10660 10669 10676 10690 10710 10721 10724 10733 10746 10762 10772 10784 10789 10794 10796 10801 10812 10814
10721 10716 10710 10705 10699 10694 10690 10686 10681 10676 10671 10667 10663 10657 10651 10642 10632 10627 10623 10618 10613 10608 10603 10604 10628 10630 10635 10637 10647 10659 10677 10697 10713 10721 10728 10740 10751 10763 10772 10777 10785 10787 10795 10802 10805
10707 10702 10696 10689 10685 10681 10676 10672 10668 10663 10658 10653 10648 10641 10633 10626 10620 10610 10609 10601 10594 10589 10584 10583 10601 10604 10608 10612 10627 10647 10663 10681 10700 10708 10717 10731 10741 10751 10762 10766 10774 10779 10785 10793 10797
10694 10689 10684 10679 10674 10669 10664 10659 10653 10649 10644 10638 10632 10625 10617 10610 10606 10595 10593 10585 10577 10570 10564 10567 10573 10576 10579 10588 10603 10631 10645 10666 10678 10690 10705 10717 10729 10737 10750 10754 10765 10770 10775 10782 10788
10683 10677 10672 10667 10663 10657 10651 10645 10639 10633 10627 10622 10617 10610 10601 10595 10588 10582 10579 10569 10562 10555 10546 10549 10551 10550 10553 10561 10578 10609 10627 10648 10665 10673 10688 10704 10716 10726 10741 10746 10754 10759 10767 10773 10779
10670 10664 10659 10653 10648 10642 10636 10630 10624 10618 10612 10606 10601 10595 10585 10583 10572 10569 10563 10556 10546 10539 10535 10531 10528 10527 10530 10540 10560 10586 10604 10626 10645 10658 10670 10690 10703 10713 10725 10734 10739 10748 10758 10764 10770
10658 10652 10645 10638 10632 10626 10621 10615 10609 10604 10598 10593 10587 10581 10570 10567 10561 10555 10549 10540 10535 10524 10519 10516 10510 10511 10517 10528 10550 10579 10596 10617 10638 10645 10662 10672 10688 10699 10712 10723 10726 10738 10749 10755 10759
10644 10637 10630 10623 10618 10613 10607 10601 10594 10589 10583 10578 10572 10569 10558 10549 10548 10541 10536 10531 10520 10515 10506 10500 10499 10500 10506 10516 10535 10556 10577 10600 10628 10639 10646 10661 10682 10686 10703 10714 10718 10727 10738 10743 10749
10629 10622 10616 10608 10602 10597 10591 10583 10577 10573 10568 10563 10556 10553 10545 10535 10532 10527 10521 10519 10511 10504 10498 10489 10488 10490 10496 10505 10520 10538 10563 10588 10612 10623 10638 10655 10671 10681 10693 10702 10709 10718 10726 10732 10739
10615 10608 10600 10592 10584 10581 10575 10566 10562 10559 10554 10546 10541 10536 10529 10522 10517 10514 10509 10507 10500 10494 10489 10480 10479 10481 10486 10498 10525 10548 10568 10586 10606 10624 10637 10645 10657 10669 10677 10684 10695 10707 10717 10723 10729
10600 10592 10584 10575 10565 10560 10557 10548 10543 10540 10538 10531 10525 10521 10511 10508 10504 10498 10497 10494 10491 10480 10478 10473 10469 10468 10472 10482 10494 10520 10540 10561 10582 10596 10612 10628 10632 10647 10658 10672 10687 10697 10708 10714 10719
10585 10577 10569 10559 10548 10541 10534 10528 10521 10515 10524 10516 10506 10506 10490 10491 10490 10482 10481 10482 10481 10471 10467 10461 10457 10458 10453 10467 10481 10501 10523 10545 10561 10581 10598 10606 10620 10630 10646 10661 10669 10681 10693 10702 10711
10567 10557 10549 10541 10528 10518 10512 10506 10494 10495 10500 10505 10489 10486 10476 10467 10473 10466 10466 10467 10468 10462 10457 10450 10449 10450 10454 10457 10469 10493 10514 10533 10551 10564 10581 10588 10596 10618 10637 10643 10655 10670 10681 10691 10700
10546 10537 10529 10525 10506 10496 10491 10483 10473 10471 10475 10480 10475 10466 10455 10453 10452 10450 10452 10454 10455 10451 10447 10440 10438 10441 10445 10451 10461 10480 10510 10518 10533 10547 10570 10576 10595 10611 10626 10634 10646 10656 10671 10676 10687
10523 10514 10508 10500 10493 10476 10469 10461 10452 10450 10455 10454 10448 10439 10436 10432 10432 10433 10435 10439 10440 10438 10435 10431 10429 10429 10437 10444 10448 10474 10481 10501 10519 10537 10542 10562 10576 10603 10607 10622 10644 10654 10662 10666 10674
10505 10486 10483 10474 10458 10461 10445 10434 10431 10431 10435 10422 10422 10417 10418 10419 10415 10422 10423 10424 10423 10426 10423 10420 10419 10420 10419 10425 10437 10441 10471 10483 10500 10516 10533 10561 10583 10591 10612 10635 10634 10640 10650 10656 10662
10485 10466 10449 10446 10431 10419 10418 10411 10408 10412 10402 10402 10398 10404 10408 10403 10400 10408 10406 10410 10409 10411 10411 10409 10408 10408 10408 10413 10422 10429 10453 10458 10485 10497 10543 10552 10566 10598 10605 10615 10621 10631 10639 10647 10653
10458 10441 10419 10413 10402 10391 10390 10384 10389 10385 10375 10373 10388 10388 10387 10387 10385 10390 10392 10395 10394 10397 10395 10395 10396 10396 10396 10401 10415 10428 10441 10456 10481 10504 10536 10536 10568 10586 10593 10601 10609 10617 10627 10637 10644
10429 10416 10394 10381 10375 10364 10360 10362 10358 10357 10347 10356 10362 10371 10368 10367 10366 10374 10379 10381 10382 10380 10379 10381 10382 10385 10383 10386 10391 10405 10417 10451 10468 10486 10500 10522 10566 10565 10580 10593 10600 10609 10617 10625 10631
10400 10390 10367 10354 10344 10336 10333 10334 10332 10329 10321 10334 10340 10345 10349 10347 10352 10356 10362 10363 10362 10364 10364 10369 10371 10373 10372 10375 10383 10396 10413 10424 10450 10470 10495 10528 10549 10556 10576 10583 10590 10596 10604 10612 10619
10364 10357 10334 10329 10318 10309 10307 10310 10305 10303 10300 10305 10314 10321 10327 10331 10331 10338 10347 10344 10350 10347 10353 10359 10363 10361 10366 10372 10375 10389 10397 10416 10438 10451 10484 10510 10534 10546 10562 10568 10577 10582 10591 10602 10608
10332 10324 10302 10303 10290 10283 10277 10279 10281 10278 10269 10281 10287 10295 10303 10306 10313 10321 10331 10329 10332 10332 10344 10345 10349 10356 10358 10361 10362 10375 10390 10406 10427 10454 10481 10501 10521 10534 10545 10556 10561 10569 10577 10587 10594
10295 10293 10267 10268 10262 10250 10249 10246 10249 10249 10249 10251 10255 10264 10275 10284 10294 10304 10312 10310 10313 10319 10330 10330 10349 10347 10350 10357 10366 10370 10379 10401 10421 10438 10457 10487 10520 10527 10533 10540 10548 10556 10563 10571 10579
10250 10252 10242 10223 10222 10217 10209 10213 10211 10216 10221 10222 10228 10233 10248 10261 10272 10287 10292 10290 10296 10308 10312 10318 10338 10341 10340 10339 10340 10355 10369 10389 10410 10424 10462 10495 10501 10510 10518 10527 10536 10541 10548 10556 10564
10208 10205 10197 10193 10183 10176 10172 10180 10178 10184 10186 10189 10203 10204 10215 10234 10248 10263 10268 10275 10284 10289 10297 10307 10328 10330 10328 10332 10338 10341 10351 10365 10388 10427 10451 10484 10485 10495 10503 10510 10519 10524 10534 10543 10550
10171 10164 10160 10154 10147 10143 10131 10144 10151 10150 10153 10161 10174 10176 10193 10207 10220 10236 10249 10253 10266 10272 10283 10299 10313 10318 10321 10324 10330 10338 10344 10355 10385 10398 10426 10436 10456 10464 10469 10487 10503 10512 10519 10529 10536
10134 10130 10130 10124 10113 10113 10105 10112 10118 10121 10123 10131 10145 10158 10168 10173 10194 10213 10229 10232 10251 10257 10265 10284 10302 10310 10315 10314 10319 10326 10348 10369 10380 10398 10423 10440 10459 10453 10473 10485 10491 10497 10506 10515 10523